Time,TemperatureF,DewpointF,PressureIn,WindDirection,WindDirectionDegrees,WindSpeedMPH,WindSpeedGustMPH,Humidity,HourlyPrecipIn,Conditions,Clouds,dailyrainin,SolarRadiationWatts/m^2,SoftwareType,DateUTC
2013-03-29 00:04:00,31.7,26.5,29.82,NE,47,1.4,3.5,81,0.00,BKN,,0.00,0.0,WeatherDisplay:10.37,2013-03-28 23:04:00,
2013-03-29 00:09:00,31.7,26.5,29.83,NE,45,2.6,6.9,81,0.00,BKN,,0.00,0.0,WeatherDisplay:10.37,2013-03-28 23:09:00,
2013-03-29 00:14:00,31.7,26.5,29.83,NE,45,1.8,5.0,81,0.00,OVC,,0.00,0.0,WeatherDisplay:10.37,2013-03-28 23:14:00,
2013-03-29 00:19:00,31.7,26.5,29.83,NE,45,0.7,4.6,81,0.00,OVC,,0.00,0.0,WeatherDisplay:10.37,2013-03-28 23:19:00,
2013-03-29 00:24:00,31.7,26.5,29.83,NE,45,1.1,2.3,81,0.00,OVC,,0.00,0.0,WeatherDisplay:10.37,2013-03-28 23:24:00,
2013-03-29 00:29:00,31.7,26.5,29.83,NE,45,0.4,3.5,81,0.00,OVC,,0.00,0.0,WeatherDisplay:10.37,2013-03-28 23:29:00,
2013-03-29 00:34:00,31.6,26.4,29.83,NE,45,4.2,4.6,81,0.00,OVC,,0.00,0.0,WeatherDisplay:10.37,2013-03-28 23:34:00,
2013-03-29 00:39:00,31.5,26.3,29.83,NE,45,3.6,4.0,81,0.00,OVC,,0.00,0.0,WeatherDisplay:10.37,2013-03-28 23:39:00,
2013-03-29 00:44:00,31.3,26.1,29.83,NNE,23,3.6,4.6,81,0.00,OVC,,0.00,0.0,WeatherDisplay:10.37,2013-03-28 23:44:00,
2013-03-29 00:49:00,31.1,25.9,29.82,NNE,21,2.9,4.6,81,0.00,OVC,,0.00,0.0,WeatherDisplay:10.37,2013-03-28 23:49:00,
2013-03-29 00:54:00,30.9,26.0,29.82,NNE,20,3.1,5.0,82,0.00,OVC,,0.00,0.0,WeatherDisplay:10.37,2013-03-28 23:54:00,
2013-03-29 01:00:00,30.8,25.9,29.82,NNE,20,3.6,4.0,82,0.00,OVC,,0.00,0.0,WeatherDisplay:10.37,2013-03-29 00:00:00,
2013-03-29 01:05:00,30.8,25.9,29.82,NNE,21,2.8,3.5,82,0.00,OVC,,0.00,0.0,WeatherDisplay:10.37,2013-03-29 00:05:00,
2013-03-29 01:10:00,30.8,26.2,29.82,NNE,21,3.1,3.5,83,0.00,OVC,,0.00,0.0,WeatherDisplay:10.37,2013-03-29 00:10:00,
2013-03-29 01:15:00,30.8,26.2,29.82,NNE,21,0.3,3.5,83,0.00,OVC,,0.00,0.0,WeatherDisplay:10.37,2013-03-29 00:15:00,
2013-03-29 01:20:00,30.8,26.2,29.82,NNE,21,3.1,6.0,83,0.00,OVC,,0.00,0.0,WeatherDisplay:10.37,2013-03-29 00:20:00,
2013-03-29 01:25:00,30.8,26.2,29.82,NNE,21,3.5,3.5,83,0.00,OVC,,0.00,0.0,WeatherDisplay:10.37,2013-03-29 00:25:00,
2013-03-29 01:30:00,30.8,26.2,29.82,NNE,24,2.9,3.5,83,0.00,OVC,,0.00,0.0,WeatherDisplay:10.37,2013-03-29 00:30:00,
2013-03-29 01:35:00,30.8,26.5,29.82,NNE,24,2.3,4.6,84,0.00,OVC,,0.00,0.0,WeatherDisplay:10.37,2013-03-29 00:35:00,
2013-03-29 01:40:00,30.8,26.2,29.82,NNE,23,1.9,4.6,83,0.00,OVC,,0.00,0.0,WeatherDisplay:10.37,2013-03-29 00:40:00,
2013-03-29 01:45:00,30.7,26.1,29.82,NNE,24,1.5,4.0,83,0.00,OVC,,0.00,0.0,WeatherDisplay:10.37,2013-03-29 00:45:00,
2013-03-29 01:50:00,30.6,26.0,29.82,NNE,33,1.8,3.5,83,0.00,OVC,,0.00,0.0,WeatherDisplay:10.37,2013-03-29 00:50:00,
2013-03-29 01:55:00,30.5,26.2,29.82,NNE,33,1.8,2.3,84,0.00,OVC,,0.00,0.0,WeatherDisplay:10.37,2013-03-29 00:55:00,
2013-03-29 02:00:00,30.5,26.2,29.82,NNE,33,2.1,5.0,84,0.00,OVC,,0.00,0.0,WeatherDisplay:10.37,2013-03-29 01:00:00,
2013-03-29 02:05:00,30.4,26.1,29.81,NNE,27,1.5,3.5,84,0.00,OVC,,0.00,0.0,WeatherDisplay:10.37,2013-03-29 01:05:00,
2013-03-29 02:10:00,30.4,26.1,29.81,NNE,27,1.0,3.5,84,0.00,OVC,,0.00,0.0,WeatherDisplay:10.37,2013-03-29 01:10:00,
2013-03-29 02:15:00,30.3,26.0,29.81,NNE,27,3.4,3.5,84,0.00,OVC,,0.00,0.0,WeatherDisplay:10.37,2013-03-29 01:15:00,
2013-03-29 02:20:00,30.3,26.0,29.81,NNE,27,1.3,2.3,84,0.00,OVC,,0.00,0.0,WeatherDisplay:10.37,2013-03-29 01:20:00,
2013-03-29 02:25:00,30.2,25.9,29.81,NNE,27,2.2,3.5,84,0.00,OVC,,0.00,0.0,WeatherDisplay:10.37,2013-03-29 01:25:00,
2013-03-29 02:30:00,30.1,25.8,29.81,NNE,27,0.0,3.5,84,0.00,OVC,,0.00,0.0,WeatherDisplay:10.37,2013-03-29 01:30:00,
2013-03-29 02:35:00,30.0,26.0,29.81,NNE,27,1.9,2.3,85,0.00,OVC,,0.00,0.0,WeatherDisplay:10.37,2013-03-29 01:35:00,
2013-03-29 02:40:00,30.0,26.0,29.81,NNE,27,0.2,2.3,85,0.00,OVC,,0.00,0.0,WeatherDisplay:10.37,2013-03-29 01:40:00,
2013-03-29 02:45:00,29.9,25.9,29.81,NNE,27,0.4,1.2,85,0.00,OVC,,0.00,0.0,WeatherDisplay:10.37,2013-03-29 01:45:00,
2013-03-29 02:50:00,29.8,25.8,29.81,NNE,27,1.9,3.5,85,0.00,OVC,,0.00,0.0,WeatherDisplay:10.37,2013-03-29 01:50:00,
2013-03-29 02:55:00,29.8,25.8,29.81,NNE,27,1.8,3.5,85,0.00,OVC,,0.00,0.0,WeatherDisplay:10.37,2013-03-29 01:55:00,
2013-03-29 03:00:00,29.7,26.0,29.81,NNE,28,0.5,1.2,86,0.00,OVC,,0.00,0.0,WeatherDisplay:10.37,2013-03-29 02:00:00,
2013-03-29 03:05:00,29.6,25.9,29.81,NNE,27,0.0,2.3,86,0.00,OVC,,0.00,0.0,WeatherDisplay:10.37,2013-03-29 02:05:00,
2013-03-29 03:10:00,29.5,25.8,29.81,NNE,27,0.4,3.5,86,0.00,OVC,,0.00,0.0,WeatherDisplay:10.37,2013-03-29 02:10:00,
2013-03-29 03:15:00,29.5,25.8,29.81,NNE,27,0.3,1.2,86,0.00,SCT,,0.00,0.0,WeatherDisplay:10.37,2013-03-29 02:15:00,
2013-03-29 03:20:00,29.3,25.6,29.81,NNE,27,0.5,3.5,86,0.00,SCT,,0.00,0.0,WeatherDisplay:10.37,2013-03-29 02:20:00,
2013-03-29 03:25:00,29.2,25.8,29.81,NNE,27,0.0,1.2,87,0.00,SCT,,0.00,0.0,WeatherDisplay:10.37,2013-03-29 02:25:00,
2013-03-29 03:30:00,29.2,25.8,29.81,NNE,27,1.1,1.2,87,0.00,SCT,,0.00,0.0,WeatherDisplay:10.37,2013-03-29 02:30:00,
2013-03-29 03:35:00,29.1,25.7,29.81,NNE,27,1.5,2.3,87,0.00,SCT,,0.00,0.0,WeatherDisplay:10.37,2013-03-29 02:35:00,
2013-03-29 03:40:00,29.1,25.7,29.81,NNE,27,0.0,0.0,87,0.00,SCT,,0.00,0.0,WeatherDisplay:10.37,2013-03-29 02:40:00,
2013-03-29 03:45:00,29.0,25.6,29.81,NNE,28,0.3,2.0,87,0.00,CLR,,0.00,0.0,WeatherDisplay:10.37,2013-03-29 02:45:00,
2013-03-29 03:50:00,29.0,25.9,29.81,NNE,27,0.0,2.3,88,0.00,CLR,,0.00,0.0,WeatherDisplay:10.37,2013-03-29 02:50:00,
2013-03-29 03:55:00,28.9,25.8,29.81,NNE,27,0.0,0.0,88,0.00,CLR,,0.00,0.0,WeatherDisplay:10.37,2013-03-29 02:55:00,
2013-03-29 04:00:00,28.8,25.7,29.81,NNE,27,0.0,0.0,88,0.00,CLR,,0.00,0.0,WeatherDisplay:10.37,2013-03-29 03:00:00,
2013-03-29 04:05:00,28.8,25.7,29.81,NNE,28,0.0,0.0,88,0.00,CLR,,0.00,0.0,WeatherDisplay:10.37,2013-03-29 03:05:00,
2013-03-29 04:10:00,28.8,25.7,29.81,NNE,27,0.0,0.0,88,0.00,CLR,,0.00,0.0,WeatherDisplay:10.37,2013-03-29 03:10:00,
2013-03-29 04:15:00,28.8,25.7,29.81,NNE,27,0.0,0.0,88,0.00,CLR,,0.00,0.0,WeatherDisplay:10.37,2013-03-29 03:15:00,
2013-03-29 05:04:00,28.8,25.7,29.81,NNE,27,0.0,0.0,88,0.00,CLR,,0.00,0.0,WeatherDisplay:10.37,2013-03-29 04:04:00,
2013-03-29 05:09:00,28.8,25.7,29.81,NNE,27,0.0,0.0,88,0.00,CLR,,0.00,0.0,WeatherDisplay:10.37,2013-03-29 04:09:00,
2013-03-29 05:39:00,28.8,25.7,29.81,NNE,27,0.0,0.0,88,0.00,CLR,,0.00,0.0,WeatherDisplay:10.37,2013-03-29 04:39:00,
2013-03-29 05:51:00,28.8,25.7,29.81,NNE,27,0.0,0.0,88,0.00,CLR,,0.00,0.0,WeatherDisplay:10.37,2013-03-29 04:51:00,
2013-03-29 06:05:00,28.8,25.7,29.81,NNE,27,0.0,0.0,88,0.00,CLR,,0.00,0.0,WeatherDisplay:10.37,2013-03-29 05:05:00,
2013-03-29 06:14:00,28.8,25.7,29.81,NNE,27,0.0,0.0,88,0.00,CLR,,0.00,0.0,WeatherDisplay:10.37,2013-03-29 05:14:00,
2013-03-29 06:29:00,28.8,25.7,29.81,NNE,27,0.0,0.0,88,0.00,CLR,,0.00,0.0,WeatherDisplay:10.37,2013-03-29 05:29:00,
2013-03-29 06:45:00,28.8,25.7,29.81,NNE,27,0.0,0.0,88,0.00,CLR,,0.00,0.0,WeatherDisplay:10.37,2013-03-29 05:45:00,
2013-03-29 07:54:00,29.4,26.5,29.82,NNE,31,0.0,0.0,89,0.00,OVC,,0.00,142.0,WeatherDisplay:10.37,2013-03-29 06:54:00,
2013-03-29 07:59:00,29.6,26.5,29.82,NNE,25,0.6,2.3,88,0.00,BKN,,0.00,149.0,WeatherDisplay:10.37,2013-03-29 06:59:00,
2013-03-29 08:04:00,29.8,26.7,29.81,NNE,19,2.0,3.5,88,0.00,BKN,,0.00,163.0,WeatherDisplay:10.37,2013-03-29 07:04:00,
2013-03-29 08:09:00,30.0,26.6,29.81,NNE,21,0.2,4.6,87,0.00,BKN,,0.00,178.0,WeatherDisplay:10.37,2013-03-29 07:09:00,
2013-03-29 08:14:00,30.3,26.9,29.82,NNE,21,1.7,4.6,87,0.00,SCT,,0.00,192.0,WeatherDisplay:10.37,2013-03-29 07:14:00,
2013-03-29 08:19:00,30.5,26.8,29.81,NNE,22,3.2,6.0,86,0.00,SCT,,0.00,199.0,WeatherDisplay:10.37,2013-03-29 07:19:00,
2013-03-29 08:24:00,30.6,26.6,29.81,NNE,24,2.5,3.5,85,0.00,SCT,,0.00,211.0,WeatherDisplay:10.37,2013-03-29 07:24:00,
2013-03-29 08:29:00,30.7,26.7,29.81,NNE,25,2.5,4.6,85,0.00,SCT,,0.00,221.0,WeatherDisplay:10.37,2013-03-29 07:29:00,
2013-03-29 08:34:00,30.8,26.8,29.81,NNE,25,1.7,4.6,85,0.00,SCT,,0.00,243.0,WeatherDisplay:10.37,2013-03-29 07:34:00,
2013-03-29 08:39:00,30.9,26.6,29.81,NNE,25,4.4,4.6,84,0.00,SCT,,0.00,250.0,WeatherDisplay:10.37,2013-03-29 07:39:00,
2013-03-29 08:44:00,31.0,26.7,29.81,NNE,26,2.1,3.0,84,0.00,SCT,,0.00,272.0,WeatherDisplay:10.37,2013-03-29 07:44:00,
2013-03-29 08:49:00,31.2,26.9,29.81,NE,36,3.9,5.8,84,0.00,SCT,,0.00,276.0,WeatherDisplay:10.37,2013-03-29 07:49:00,
2013-03-29 08:54:00,31.2,26.6,29.81,NE,36,3.3,6.0,83,0.00,SCT,,0.00,149.0,WeatherDisplay:10.37,2013-03-29 07:54:00,
2013-03-29 08:59:00,31.4,27.1,29.82,NE,35,0.0,3.5,84,0.00,SCT,,0.00,250.0,WeatherDisplay:10.37,2013-03-29 07:59:00,
2013-03-29 09:04:00,31.5,26.9,29.82,NE,36,3.4,5.0,83,0.00,SCT,,0.00,262.0,WeatherDisplay:10.37,2013-03-29 08:04:00,
2013-03-29 09:09:00,31.5,27.2,29.81,NNE,32,0.4,3.5,84,0.00,SCT,,0.00,316.0,WeatherDisplay:10.37,2013-03-29 08:09:00,
2013-03-29 09:14:00,31.7,27.1,29.81,NE,54,4.7,5.8,83,0.00,SCT,,0.00,322.0,WeatherDisplay:10.37,2013-03-29 08:14:00,
2013-03-29 09:19:00,31.9,27.3,29.81,NE,53,3.1,4.6,83,0.00,SCT,,0.00,369.0,WeatherDisplay:10.37,2013-03-29 08:19:00,
2013-03-29 09:24:00,32.1,27.5,29.81,ENE,63,4.4,6.9,83,0.00,SCT,,0.00,374.0,WeatherDisplay:10.37,2013-03-29 08:24:00,
2013-03-29 09:30:00,32.1,27.2,29.81,NE,51,5.4,7.0,82,0.00,SCT,,0.00,392.0,WeatherDisplay:10.37,2013-03-29 08:30:00,
2013-03-29 09:35:00,32.3,27.4,29.81,NE,53,3.6,5.8,82,0.00,SCT,,0.00,425.0,WeatherDisplay:10.37,2013-03-29 08:35:00,
2013-03-29 09:40:00,32.5,27.6,29.81,NE,52,4.1,6.9,82,0.00,SCT,,0.00,434.0,WeatherDisplay:10.37,2013-03-29 08:40:00,
2013-03-29 09:45:00,32.6,27.7,29.81,NE,56,4.8,5.8,82,0.00,SCT,,0.00,448.0,WeatherDisplay:10.37,2013-03-29 08:45:00,
2013-03-29 09:50:00,32.9,28.0,29.81,East,84,3.1,4.6,82,0.00,BKN,,0.00,260.0,WeatherDisplay:10.37,2013-03-29 08:50:00,
2013-03-29 09:55:00,33.0,27.8,29.81,ENE,63,5.9,7.0,81,0.00,FEW,,0.00,267.0,WeatherDisplay:10.37,2013-03-29 08:55:00,
2013-03-29 10:00:00,32.9,27.7,29.81,ENE,65,5.8,6.0,81,0.00,FEW,,0.00,271.0,WeatherDisplay:10.37,2013-03-29 09:00:00,
2013-03-29 10:05:00,33.2,28.0,29.81,ENE,73,5.3,5.8,81,0.00,FEW,,0.00,563.0,WeatherDisplay:10.37,2013-03-29 09:05:00,
2013-03-29 10:10:00,33.7,28.5,29.81,ENE,75,2.5,5.8,81,0.00,FEW,,0.00,353.0,WeatherDisplay:10.37,2013-03-29 09:10:00,
2013-03-29 10:15:00,34.1,28.6,29.81,ENE,70,3.9,4.6,80,0.00,FEW,,0.00,297.0,WeatherDisplay:10.37,2013-03-29 09:15:00,
2013-03-29 10:20:00,34.3,28.1,29.81,ENE,70,2.0,3.5,78,0.00,FEW,,0.00,237.0,WeatherDisplay:10.37,2013-03-29 09:20:00,
2013-03-29 10:25:00,34.2,28.0,29.81,ENE,58,2.1,4.0,78,0.00,SCT,,0.00,223.0,WeatherDisplay:10.37,2013-03-29 09:25:00,
2013-03-29 10:30:00,34.1,27.6,29.81,NE,49,3.0,3.5,77,0.00,SCT,,0.00,148.0,WeatherDisplay:10.37,2013-03-29 09:30:00,
2013-03-29 10:35:00,33.9,27.4,29.81,NE,39,3.6,5.8,77,0.00,SCT,,0.00,144.0,WeatherDisplay:10.37,2013-03-29 09:35:00,
2013-03-29 10:40:00,33.9,27.7,29.81,NE,39,2.7,3.5,78,0.00,SCT,,0.00,151.0,WeatherDisplay:10.37,2013-03-29 09:40:00,
2013-03-29 10:45:00,34.0,27.5,29.81,NE,39,2.2,3.5,77,0.00,OVC,,0.00,160.0,WeatherDisplay:10.37,2013-03-29 09:45:00,
2013-03-29 10:50:00,34.0,27.5,29.81,NE,39,1.2,2.3,77,0.00,OVC,,0.00,130.0,WeatherDisplay:10.37,2013-03-29 09:50:00,
2013-03-29 10:55:00,34.1,27.3,29.81,NE,39,0.5,2.0,76,0.00,OVC,,0.00,127.0,WeatherDisplay:10.37,2013-03-29 09:55:00,
2013-03-29 11:00:00,34.2,27.4,29.81,NE,39,2.8,3.5,76,0.00,OVC,,0.00,163.0,WeatherDisplay:10.37,2013-03-29 10:00:00,
2013-03-29 11:05:00,34.3,27.5,29.81,NE,39,2.7,3.5,76,0.00,OVC,,0.00,237.0,WeatherDisplay:10.37,2013-03-29 10:05:00,
2013-03-29 11:10:00,34.3,27.2,29.81,NE,39,1.0,2.0,75,0.00,OVC,,0.00,313.0,WeatherDisplay:10.37,2013-03-29 10:10:00,
2013-03-29 11:15:00,34.5,27.0,29.80,NE,39,2.8,4.0,74,0.00,OVC,,0.00,517.0,WeatherDisplay:10.37,2013-03-29 10:15:00,
2013-03-29 11:20:00,34.9,27.4,29.80,NE,39,0.0,3.5,74,0.00,OVC,,0.00,292.0,WeatherDisplay:10.37,2013-03-29 10:20:00,
2013-03-29 11:25:00,35.1,27.6,29.80,NE,43,2.9,5.0,74,0.00,OVC,,0.00,304.0,WeatherDisplay:10.37,2013-03-29 10:25:00,
2013-03-29 11:30:00,35.4,27.9,29.80,NE,44,1.2,0.0,74,0.00,OVC,,0.00,712.0,WeatherDisplay:10.37,2013-03-29 10:30:00,
2013-03-29 11:35:00,35.8,28.0,29.80,NE,45,0.0,1.2,73,0.00,OVC,,0.00,364.0,WeatherDisplay:10.37,2013-03-29 10:35:00,
2013-03-29 11:40:00,36.0,27.8,29.80,NE,45,3.2,6.0,72,0.00,OVC,,0.00,279.0,WeatherDisplay:10.37,2013-03-29 10:40:00,
2013-03-29 11:45:00,35.6,27.1,29.79,NE,45,2.4,3.0,71,0.00,OVC,,0.00,244.0,WeatherDisplay:10.37,2013-03-29 10:45:00,
2013-03-29 11:50:00,35.7,27.2,29.80,NE,41,1.8,4.6,71,0.00,OVC,,0.00,260.0,WeatherDisplay:10.37,2013-03-29 10:50:00,
2013-03-29 11:55:00,35.6,27.8,29.80,NE,34,2.7,3.5,73,0.00,SCT,,0.00,162.0,WeatherDisplay:10.37,2013-03-29 10:55:00,
2013-03-29 12:00:00,35.4,27.6,29.80,NNE,28,4.0,7.0,73,0.00,SCT,,0.00,123.0,WeatherDisplay:10.37,2013-03-29 11:00:00,
2013-03-29 12:05:00,35.2,27.7,29.79,NNE,21,4.7,6.9,74,0.00,BKN,,0.00,105.0,WeatherDisplay:10.37,2013-03-29 11:05:00,
2013-03-29 12:10:00,35.0,27.9,29.79,NNE,21,3.8,4.6,75,0.00,BKN,,0.00,100.0,WeatherDisplay:10.37,2013-03-29 11:10:00,
2013-03-29 12:15:00,35.0,28.2,29.80,NNE,21,2.5,3.0,76,0.00,FEW,,0.00,130.0,WeatherDisplay:10.37,2013-03-29 11:15:00,
2013-03-29 12:20:00,34.9,28.1,29.80,NNE,21,2.5,3.5,76,0.00,FEW,,0.00,144.0,WeatherDisplay:10.37,2013-03-29 11:20:00,
2013-03-29 12:25:00,35.0,28.2,29.80,NNE,21,0.9,2.3,76,0.00,FEW,,0.00,113.0,WeatherDisplay:10.37,2013-03-29 11:25:00,
2013-03-29 12:30:00,35.1,27.6,29.79,NNE,21,5.5,6.9,74,0.00,FEW,,0.00,84.0,WeatherDisplay:10.37,2013-03-29 11:30:00,
2013-03-29 12:35:00,35.2,27.4,29.79,NNE,21,3.0,4.6,73,0.00,FEW,,0.00,70.0,WeatherDisplay:10.37,2013-03-29 11:35:00,
2013-03-29 12:40:00,35.1,27.0,29.79,NNE,23,2.4,4.0,72,0.00,FEW,,0.00,70.0,WeatherDisplay:10.37,2013-03-29 11:40:00,
2013-03-29 12:45:00,35.1,27.3,29.79,North,5,4.6,9.2,73,0.00,FEW,,0.00,83.0,WeatherDisplay:10.37,2013-03-29 11:45:00,
2013-03-29 12:50:00,35.2,27.7,29.79,North,356,2.4,3.5,74,0.00,FEW,,0.00,121.0,WeatherDisplay:10.37,2013-03-29 11:50:00,
2013-03-29 12:55:00,35.2,27.7,29.79,North,356,2.2,5.0,74,0.00,BKN,,0.00,171.0,WeatherDisplay:10.37,2013-03-29 11:55:00,
2013-03-29 13:00:00,35.4,27.9,29.79,North,356,4.7,4.7,74,0.00,BKN,,0.00,234.0,WeatherDisplay:10.37,2013-03-29 12:00:00,
2013-03-29 13:05:00,35.6,28.1,29.79,North,356,4.7,6.9,74,0.00,BKN,,0.00,258.0,WeatherDisplay:10.37,2013-03-29 12:05:00,
2013-03-29 13:10:00,35.8,28.0,29.79,North,356,4.0,5.0,73,0.00,BKN,,0.00,251.0,WeatherDisplay:10.37,2013-03-29 12:10:00,
2013-03-29 13:15:00,35.6,27.8,29.79,NNE,32,2.3,3.5,73,0.00,OVC,,0.00,262.0,WeatherDisplay:10.37,2013-03-29 12:15:00,
2013-03-29 13:20:00,35.8,28.3,29.79,NNE,22,2.6,3.5,74,0.00,OVC,,0.00,292.0,WeatherDisplay:10.37,2013-03-29 12:20:00,
2013-03-29 13:25:00,36.2,28.4,29.79,NNE,21,4.0,4.6,73,0.00,OVC,,0.00,283.0,WeatherDisplay:10.37,2013-03-29 12:25:00,
2013-03-29 13:30:00,36.5,28.3,29.78,NNE,16,4.2,6.9,72,0.00,OVC,,0.00,260.0,WeatherDisplay:10.37,2013-03-29 12:30:00,
2013-03-29 13:35:00,36.6,28.1,29.78,NNW,344,6.3,6.9,71,0.00,OVC,,0.00,244.0,WeatherDisplay:10.37,2013-03-29 12:35:00,
2013-03-29 13:40:00,36.5,27.6,29.78,North,356,1.7,3.5,70,0.00,OVC,,0.00,269.0,WeatherDisplay:10.37,2013-03-29 12:40:00,
2013-03-29 13:45:00,36.7,28.2,29.78,North,5,3.2,4.6,71,0.00,OVC,,0.00,281.0,WeatherDisplay:10.37,2013-03-29 12:45:00,
2013-03-29 13:50:00,36.8,27.9,29.79,North,1,2.3,3.5,70,0.00,OVC,,0.00,272.0,WeatherDisplay:10.37,2013-03-29 12:50:00,
2013-03-29 13:55:00,36.6,27.4,29.78,NNE,14,1.6,4.0,69,0.00,OVC,,0.00,281.0,WeatherDisplay:10.37,2013-03-29 12:55:00,
2013-03-29 14:00:00,36.7,27.8,29.78,NNE,14,0.0,0.0,70,0.00,OVC,,0.00,295.0,WeatherDisplay:10.37,2013-03-29 13:00:00,
2013-03-29 14:05:00,37.0,27.8,29.78,NNE,14,0.0,0.0,69,0.00,OVC,,0.00,262.0,WeatherDisplay:10.37,2013-03-29 13:05:00,
2013-03-29 14:10:00,37.1,27.1,29.78,NNE,14,1.5,4.0,67,0.00,OVC,,0.00,253.0,WeatherDisplay:10.37,2013-03-29 13:10:00,
2013-03-29 14:15:00,37.1,26.8,29.78,NNE,13,2.1,6.0,66,0.00,OVC,,0.00,234.0,WeatherDisplay:10.37,2013-03-29 13:15:00,
2013-03-29 14:20:00,37.3,27.3,29.78,NNE,13,0.9,3.5,67,0.00,OVC,,0.00,207.0,WeatherDisplay:10.37,2013-03-29 13:20:00,
2013-03-29 14:25:00,37.4,27.1,29.77,NNE,13,0.8,2.3,66,0.00,OVC,,0.00,186.0,WeatherDisplay:10.37,2013-03-29 13:25:00,
2013-03-29 14:30:00,37.3,27.0,29.78,NNE,13,3.7,4.6,66,0.00,OVC,,0.00,176.0,WeatherDisplay:10.37,2013-03-29 13:30:00,
2013-03-29 14:35:00,37.4,27.1,29.77,NNE,13,1.1,3.5,66,0.00,BKN,,0.00,167.0,WeatherDisplay:10.37,2013-03-29 13:35:00,
2013-03-29 14:40:00,37.5,26.8,29.77,NNE,13,0.0,3.5,65,0.00,BKN,,0.00,171.0,WeatherDisplay:10.37,2013-03-29 13:40:00,
2013-03-29 14:45:00,37.6,27.2,29.77,NNE,13,3.4,5.0,66,0.00,BKN,,0.00,183.0,WeatherDisplay:10.37,2013-03-29 13:45:00,
2013-03-29 14:50:00,37.5,27.1,29.77,NNE,13,2.8,3.5,66,0.00,BKN,,0.00,146.0,WeatherDisplay:10.37,2013-03-29 13:50:00,
2013-03-29 14:55:00,37.5,27.5,29.77,NNE,13,0.6,3.5,67,0.00,BKN,,0.00,135.0,WeatherDisplay:10.37,2013-03-29 13:55:00,
2013-03-29 15:00:00,37.4,27.4,29.77,NNE,13,2.2,3.5,67,0.00,BKN,,0.00,151.0,WeatherDisplay:10.37,2013-03-29 14:00:00,
2013-03-29 15:05:00,37.5,27.5,29.77,NNE,13,3.2,3.5,67,0.00,BKN,,0.00,185.0,WeatherDisplay:10.37,2013-03-29 14:05:00,
2013-03-29 15:10:00,37.7,27.3,29.77,NNE,13,0.0,1.2,66,0.00,BKN,,0.00,232.0,WeatherDisplay:10.37,2013-03-29 14:10:00,
2013-03-29 15:15:00,37.9,27.2,29.77,NNE,14,1.6,3.5,65,0.00,BKN,,0.00,202.0,WeatherDisplay:10.37,2013-03-29 14:15:00,
2013-03-29 15:20:00,38.2,27.1,29.77,East,97,2.8,5.8,64,0.00,BKN,,0.00,111.0,WeatherDisplay:10.37,2013-03-29 14:20:00,
2013-03-29 15:25:00,38.1,27.3,29.77,ENE,64,4.2,6.0,65,0.00,BKN,,0.00,60.0,WeatherDisplay:10.37,2013-03-29 14:25:00,
2013-03-29 15:30:00,37.6,27.6,29.77,East,88,3.9,5.8,67,0.00,BKN,,0.00,47.0,WeatherDisplay:10.37,2013-03-29 14:30:00,
2013-03-29 15:35:00,37.1,28.2,29.77,East,84,5.6,7.0,70,0.00,BKN,,0.00,53.0,WeatherDisplay:10.37,2013-03-29 14:35:00,
2013-03-29 15:40:00,36.6,28.7,29.77,ENE,62,3.9,7.0,73,0.00,BKN,,0.00,67.0,WeatherDisplay:10.37,2013-03-29 14:40:00,
2013-03-29 15:45:00,36.1,29.2,29.77,NE,34,3.2,4.6,76,0.00,BKN,,0.00,84.0,WeatherDisplay:10.37,2013-03-29 14:45:00,
2013-03-29 15:50:00,35.9,29.7,29.77,NNE,13,0.7,8.1,78,0.00,BKN,,0.00,100.0,WeatherDisplay:10.37,2013-03-29 14:50:00,
2013-03-29 15:55:00,35.8,29.9,29.77,North,1,4.6,6.9,79,0.00,BKN,,0.00,111.0,WeatherDisplay:10.37,2013-03-29 14:55:00,
2013-03-29 16:00:00,35.6,29.4,29.77,North,1,4.5,6.9,78,0.00,BKN,,0.00,102.0,WeatherDisplay:10.37,2013-03-29 15:00:00,
2013-03-29 16:05:00,35.6,29.7,29.77,North,1,2.7,4.6,79,0.00,SCT,,0.00,86.0,WeatherDisplay:10.37,2013-03-29 15:05:00,
2013-03-29 16:10:00,35.5,29.6,29.77,North,1,1.6,4.6,79,0.00,SCT,,0.00,81.0,WeatherDisplay:10.37,2013-03-29 15:10:00,
2013-03-29 16:15:00,35.5,29.6,29.77,North,1,1.0,3.5,79,0.00,SCT,,0.00,79.0,WeatherDisplay:10.37,2013-03-29 15:15:00,
2013-03-29 16:20:00,35.5,29.6,29.77,North,1,2.8,5.0,79,0.00,SCT,,0.00,86.0,WeatherDisplay:10.37,2013-03-29 15:20:00,
2013-03-29 16:25:00,35.6,29.7,29.77,NNW,345,0.8,2.3,79,0.00,SCT,,0.00,113.0,WeatherDisplay:10.37,2013-03-29 15:25:00,
2013-03-29 16:30:00,35.7,29.8,29.77,NNW,344,1.6,3.5,79,0.00,SCT,,0.00,134.0,WeatherDisplay:10.37,2013-03-29 15:30:00,
2013-03-29 16:35:00,35.8,29.3,29.77,NNW,343,3.1,4.0,77,0.00,BKN,,0.00,128.0,WeatherDisplay:10.37,2013-03-29 15:35:00,
2013-03-29 16:40:00,36.0,29.5,29.77,NNW,343,2.3,3.5,77,0.00,BKN,,0.00,98.0,WeatherDisplay:10.37,2013-03-29 15:40:00,
2013-03-29 16:45:00,36.2,30.0,29.76,North,1,8.4,11.5,78,0.00,BKN,,0.00,72.0,WeatherDisplay:10.37,2013-03-29 15:45:00,
2013-03-29 16:50:00,35.7,30.1,29.77,North,1,5.6,9.2,80,0.00,BKN,,0.00,62.0,WeatherDisplay:10.37,2013-03-29 15:50:00,
2013-03-29 16:55:00,35.3,30.3,29.77,North,1,3.9,8.1,82,0.00,BKN,,0.00,53.0,WeatherDisplay:10.37,2013-03-29 15:55:00,
2013-03-29 17:00:00,35.3,30.6,29.77,North,1,2.6,6.9,83,0.00,BKN,,0.00,42.0,WeatherDisplay:10.37,2013-03-29 16:00:00,
2013-03-29 17:05:00,34.9,30.5,29.77,NE,52,3.3,4.6,84,0.00,BKN,,0.00,28.0,WeatherDisplay:10.37,2013-03-29 16:05:00,
2013-03-29 17:10:00,34.5,30.4,29.77,NE,35,5.0,8.1,85,0.00,BKN,,0.00,21.0,WeatherDisplay:10.37,2013-03-29 16:10:00,
2013-03-29 17:15:00,34.3,30.5,29.77,NE,34,2.4,4.0,86,0.00,BKN,,0.00,26.0,WeatherDisplay:10.37,2013-03-29 16:15:00,
2013-03-29 17:20:00,34.3,30.5,29.77,NE,34,2.0,3.5,86,0.00,BKN,,0.00,32.0,WeatherDisplay:10.37,2013-03-29 16:20:00,
2013-03-29 17:25:00,34.1,30.6,29.77,NE,34,0.0,1.2,87,0.00,BKN,,0.00,35.0,WeatherDisplay:10.37,2013-03-29 16:25:00,
2013-03-29 17:30:00,34.1,30.6,29.77,NE,34,0.0,0.0,87,0.00,BKN,,0.00,39.0,WeatherDisplay:10.37,2013-03-29 16:30:00,
2013-03-29 17:35:00,34.2,30.7,29.77,NE,34,0.0,0.0,87,0.00,BKN,,0.00,42.0,WeatherDisplay:10.37,2013-03-29 16:35:00,
2013-03-29 17:40:00,34.3,30.8,29.77,NNE,20,1.6,3.5,87,0.00,BKN,,0.00,44.0,WeatherDisplay:10.37,2013-03-29 16:40:00,
2013-03-29 17:45:00,34.3,30.8,29.77,NNE,20,1.9,2.3,87,0.00,BKN,,0.00,46.0,WeatherDisplay:10.37,2013-03-29 16:45:00,
2013-03-29 17:50:00,34.3,30.8,29.77,NNE,20,0.7,3.5,87,0.00,BKN,,0.00,44.0,WeatherDisplay:10.37,2013-03-29 16:50:00,
2013-03-29 17:55:00,34.4,30.9,29.77,NNE,20,2.7,3.0,87,0.00,BKN,,0.00,40.0,WeatherDisplay:10.37,2013-03-29 16:55:00,
2013-03-29 18:00:00,34.5,31.0,29.77,NNE,20,2.8,3.5,87,0.00,BKN,,0.00,37.0,WeatherDisplay:10.37,2013-03-29 17:00:00,
2013-03-29 18:05:00,34.5,31.0,29.77,NNE,19,1.6,3.5,87,0.00,FEW,,0.00,37.0,WeatherDisplay:10.37,2013-03-29 17:05:00,
2013-03-29 18:10:00,34.6,31.1,29.77,NNE,19,2.1,3.5,87,0.00,FEW,,0.00,35.0,WeatherDisplay:10.37,2013-03-29 17:10:00,
2013-03-29 18:15:00,34.7,31.2,29.77,NNE,19,3.4,3.5,87,0.00,FEW,,0.00,35.0,WeatherDisplay:10.37,2013-03-29 17:15:00,
2013-03-29 18:20:00,34.7,30.9,29.77,NNE,20,2.8,4.6,86,0.00,FEW,,0.00,28.0,WeatherDisplay:10.37,2013-03-29 17:20:00,
2013-03-29 18:25:00,34.8,31.0,29.77,NNE,20,1.3,2.3,86,0.00,FEW,,0.00,19.0,WeatherDisplay:10.37,2013-03-29 17:25:00,
2013-03-29 18:30:00,34.8,30.7,29.77,NE,52,3.0,5.8,85,0.00,FEW,,0.00,19.0,WeatherDisplay:10.37,2013-03-29 17:30:00,
2013-03-29 18:35:00,34.7,30.6,29.77,NE,52,0.7,2.3,85,0.00,-SN,,0.00,21.0,WeatherDisplay:10.37,2013-03-29 17:35:00,
2013-03-29 18:40:00,34.8,30.7,29.77,NE,52,0.2,2.3,85,0.00,-SN,,0.00,19.0,WeatherDisplay:10.37,2013-03-29 17:40:00,
2013-03-29 18:45:00,34.8,31.0,29.77,NE,52,1.3,3.5,86,0.00,-SN,,0.00,18.0,WeatherDisplay:10.37,2013-03-29 17:45:00,
2013-03-29 18:50:00,34.7,30.9,29.77,NE,52,3.5,4.6,86,0.00,-SN,,0.00,14.0,WeatherDisplay:10.37,2013-03-29 17:50:00,
2013-03-29 18:55:00,34.6,30.5,29.77,NE,51,1.9,4.0,85,0.00,-SN,,0.00,9.0,WeatherDisplay:10.37,2013-03-29 17:55:00,
2013-03-29 19:00:00,34.5,30.4,29.77,NNE,16,5.2,8.1,85,0.00,-SN,,0.00,5.0,WeatherDisplay:10.37,2013-03-29 18:00:00,
2013-03-29 19:05:00,34.3,30.2,29.77,NNE,15,4.0,5.8,85,0.00,SCT,,0.00,5.0,WeatherDisplay:10.37,2013-03-29 18:05:00,
2013-03-29 19:10:00,34.1,30.3,29.77,NNE,20,2.6,5.8,86,0.00,SCT,,0.00,0.0,WeatherDisplay:10.37,2013-03-29 18:10:00,
2013-03-29 19:15:00,33.9,30.1,29.77,NNE,20,4.1,4.6,86,0.00,SCT,,0.00,0.0,WeatherDisplay:10.37,2013-03-29 18:15:00,
2013-03-29 19:20:00,33.9,30.4,29.77,NNE,17,2.6,5.0,87,0.00,SCT,,0.00,0.0,WeatherDisplay:10.37,2013-03-29 18:20:00,
2013-03-29 19:25:00,33.8,30.6,29.77,NNE,17,2.4,3.5,88,0.00,SCT,,0.00,0.0,WeatherDisplay:10.37,2013-03-29 18:25:00,
2013-03-29 19:30:00,33.7,30.5,29.77,NNE,17,1.8,3.5,88,0.00,SCT,,0.00,0.0,WeatherDisplay:10.37,2013-03-29 18:30:00,
2013-03-29 19:35:00,33.6,30.4,29.77,NNE,17,1.4,2.3,88,0.00,,,0.00,0.0,WeatherDisplay:10.37,2013-03-29 18:35:00,
2013-03-29 19:40:00,33.6,30.4,29.77,NNE,17,3.1,4.0,88,0.00,,,0.00,0.0,WeatherDisplay:10.37,2013-03-29 18:40:00,
2013-03-29 19:45:00,33.5,30.3,29.77,NNE,17,2.7,4.0,88,0.00,CLR,,0.00,0.0,WeatherDisplay:10.37,2013-03-29 18:45:00,
2013-03-29 19:50:00,33.4,30.2,29.77,NNE,17,1.8,3.5,88,0.00,CLR,,0.00,0.0,WeatherDisplay:10.37,2013-03-29 18:50:00,
2013-03-29 19:55:00,33.3,30.1,29.77,NNE,17,2.0,3.5,88,0.00,CLR,,0.00,0.0,WeatherDisplay:10.37,2013-03-29 18:55:00,
2013-03-29 20:00:00,33.2,30.0,29.77,NNE,17,1.4,3.5,88,0.00,CLR,,0.00,0.0,WeatherDisplay:10.37,2013-03-29 19:00:00,
2013-03-29 20:05:00,33.2,30.0,29.77,NNE,17,3.0,4.6,88,0.00,SCT,,0.00,0.0,WeatherDisplay:10.37,2013-03-29 19:05:00,
2013-03-29 20:10:00,33.2,30.0,29.77,NNE,17,1.9,3.5,88,0.00,SCT,,0.00,0.0,WeatherDisplay:10.37,2013-03-29 19:10:00,
2013-03-29 20:15:00,33.1,30.2,29.77,NNE,17,2.0,4.0,89,0.00,SCT,,0.00,0.0,WeatherDisplay:10.37,2013-03-29 19:15:00,
2013-03-29 20:20:00,33.1,30.2,29.78,NNE,17,1.0,2.3,89,0.00,SCT,,0.00,0.0,WeatherDisplay:10.37,2013-03-29 19:20:00,
2013-03-29 20:25:00,33.0,30.1,29.78,NNE,17,0.3,3.5,89,0.00,SCT,,0.00,0.0,WeatherDisplay:10.37,2013-03-29 19:25:00,
2013-03-29 20:30:00,33.0,30.1,29.78,NNE,17,1.3,2.3,89,0.00,SCT,,0.00,0.0,WeatherDisplay:10.37,2013-03-29 19:30:00,
2013-03-29 20:35:00,33.0,30.1,29.78,NNE,17,1.8,3.5,89,0.00,SCT,,0.00,0.0,WeatherDisplay:10.37,2013-03-29 19:35:00,
2013-03-29 20:40:00,33.0,30.1,29.78,NNE,17,0.5,3.5,89,0.00,SCT,,0.00,0.0,WeatherDisplay:10.37,2013-03-29 19:40:00,
2013-03-29 20:45:00,33.0,29.8,29.78,NNE,17,1.8,3.5,88,0.00,SCT,,0.00,0.0,WeatherDisplay:10.37,2013-03-29 19:45:00,
2013-03-29 20:50:00,33.1,29.9,29.77,NNE,17,0.1,1.2,88,0.00,SCT,,0.00,0.0,WeatherDisplay:10.37,2013-03-29 19:50:00,
2013-03-29 20:55:00,33.1,29.9,29.77,NNE,17,0.3,2.3,88,0.00,SCT,,0.00,0.0,WeatherDisplay:10.37,2013-03-29 19:55:00,
2013-03-29 21:00:00,33.1,29.9,29.77,NNE,17,2.9,4.0,88,0.00,SCT,,0.00,0.0,WeatherDisplay:10.37,2013-03-29 20:00:00,
2013-03-29 21:05:00,33.1,29.9,29.77,NNE,17,1.7,3.5,88,0.00,SCT,,0.00,0.0,WeatherDisplay:10.37,2013-03-29 20:05:00,
2013-03-29 21:10:00,33.1,29.9,29.77,NNE,17,2.0,3.5,88,0.00,SCT,,0.00,0.0,WeatherDisplay:10.37,2013-03-29 20:10:00,
2013-03-29 21:15:00,33.1,29.9,29.77,NNE,17,1.8,3.5,88,0.00,SCT,,0.00,0.0,WeatherDisplay:10.37,2013-03-29 20:15:00,
2013-03-29 21:20:00,33.1,29.9,29.77,NNE,17,2.3,3.5,88,0.00,SCT,,0.00,0.0,WeatherDisplay:10.37,2013-03-29 20:20:00,
2013-03-29 21:30:00,33.0,29.8,29.78,NNE,17,2.4,3.5,88,0.00,SCT,,0.00,0.0,WeatherDisplay:10.37,2013-03-29 20:30:00,
2013-03-29 21:35:00,33.0,29.8,29.78,NNE,17,0.9,2.3,88,0.00,BKN,,0.00,0.0,WeatherDisplay:10.37,2013-03-29 20:35:00,
2013-03-29 21:40:00,33.1,29.9,29.78,NNE,17,1.4,3.5,88,0.00,BKN,,0.00,0.0,WeatherDisplay:10.37,2013-03-29 20:40:00,
2013-03-29 21:45:00,33.1,29.9,29.78,NNE,17,1.0,2.3,88,0.00,BKN,,0.00,0.0,WeatherDisplay:10.37,2013-03-29 20:45:00,
2013-03-29 21:50:00,33.0,29.8,29.78,NNE,17,0.3,2.3,88,0.00,BKN,,0.00,0.0,WeatherDisplay:10.37,2013-03-29 20:50:00,
2013-03-29 21:55:00,33.0,29.8,29.78,NNE,17,1.7,3.5,88,0.00,BKN,,0.00,0.0,WeatherDisplay:10.37,2013-03-29 20:55:00,
2013-03-29 22:00:00,33.0,29.8,29.78,NNE,17,0.0,0.0,88,0.00,BKN,,0.00,0.0,WeatherDisplay:10.37,2013-03-29 21:00:00,
2013-03-29 22:05:00,32.9,29.7,29.78,NNE,17,0.0,0.0,88,0.00,OVC,,0.00,0.0,WeatherDisplay:10.37,2013-03-29 21:05:00,
2013-03-29 22:10:00,32.9,29.7,29.78,NNE,17,0.0,0.0,88,0.00,OVC,,0.00,0.0,WeatherDisplay:10.37,2013-03-29 21:10:00,
2013-03-29 22:15:00,32.8,29.6,29.78,NNE,17,2.5,3.5,88,0.00,OVC,,0.00,0.0,WeatherDisplay:10.37,2013-03-29 21:15:00,
2013-03-29 22:20:00,32.8,29.6,29.78,NNE,17,1.7,4.0,88,0.00,OVC,,0.00,0.0,WeatherDisplay:10.37,2013-03-29 21:20:00,
2013-03-29 22:25:00,32.8,29.6,29.78,NNE,17,2.7,3.5,88,0.00,OVC,,0.00,0.0,WeatherDisplay:10.37,2013-03-29 21:25:00,
2013-03-29 22:30:00,32.7,29.5,29.77,NNE,17,1.8,3.5,88,0.00,OVC,,0.00,0.0,WeatherDisplay:10.37,2013-03-29 21:30:00,
2013-03-29 22:35:00,32.7,29.5,29.78,NNE,17,1.3,3.5,88,0.00,OVC,,0.00,0.0,WeatherDisplay:10.37,2013-03-29 21:35:00,
2013-03-29 22:40:00,32.6,29.4,29.77,NNE,17,2.3,3.5,88,0.00,OVC,,0.00,0.0,WeatherDisplay:10.37,2013-03-29 21:40:00,
2013-03-29 22:45:00,32.5,29.3,29.77,NNE,17,1.9,3.5,88,0.00,OVC,,0.00,0.0,WeatherDisplay:10.37,2013-03-29 21:45:00,
2013-03-29 22:50:00,32.5,29.3,29.77,NNE,17,1.7,3.5,88,0.00,OVC,,0.00,0.0,WeatherDisplay:10.37,2013-03-29 21:50:00,
2013-03-29 22:55:00,32.4,29.2,29.77,NNE,17,0.5,2.3,88,0.00,OVC,,0.00,0.0,WeatherDisplay:10.37,2013-03-29 21:55:00,
2013-03-29 23:00:00,32.2,29.0,29.77,NNE,17,1.8,2.3,88,0.00,OVC,,0.00,0.0,WeatherDisplay:10.37,2013-03-29 22:00:00,
2013-03-29 23:05:00,32.1,28.9,29.77,NNE,17,2.4,3.5,88,0.00,CLR,,0.00,0.0,WeatherDisplay:10.37,2013-03-29 22:05:00,
2013-03-29 23:10:00,31.9,28.7,29.77,NNE,17,1.7,3.5,88,0.00,CLR,,0.00,0.0,WeatherDisplay:10.37,2013-03-29 22:10:00,
2013-03-29 23:15:00,31.9,28.7,29.77,NNE,17,1.4,2.3,88,0.00,CLR,,0.00,0.0,WeatherDisplay:10.37,2013-03-29 22:15:00,
2013-03-29 23:20:00,31.8,28.6,29.77,NNE,17,0.6,2.3,88,0.00,CLR,,0.00,0.0,WeatherDisplay:10.37,2013-03-29 22:20:00,
2013-03-29 23:25:00,31.7,28.5,29.77,NNE,17,0.0,0.0,88,0.00,CLR,,0.00,0.0,WeatherDisplay:10.37,2013-03-29 22:25:00,
2013-03-29 23:30:00,31.6,28.4,29.77,NNE,17,0.0,0.0,88,0.00,CLR,,0.00,0.0,WeatherDisplay:10.37,2013-03-29 22:30:00,
2013-03-29 23:35:00,31.5,28.6,29.77,NNE,17,0.9,2.3,89,0.00,CLR,,0.00,0.0,WeatherDisplay:10.37,2013-03-29 22:35:00,
2013-03-29 23:40:00,31.5,28.6,29.77,NNE,17,1.4,2.3,89,0.00,CLR,,0.00,0.0,WeatherDisplay:10.37,2013-03-29 22:40:00,
2013-03-29 23:45:00,31.4,28.5,29.77,NNE,17,1.7,2.3,89,0.00,CLR,,0.00,0.0,WeatherDisplay:10.37,2013-03-29 22:45:00,
2013-03-29 23:50:00,31.4,28.5,29.77,NNE,17,1.4,3.5,89,0.00,CLR,,0.00,0.0,WeatherDisplay:10.37,2013-03-29 22:50:00,
2013-03-29 23:55:00,31.3,28.4,29.77,NNE,17,0.0,0.0,89,0.00,CLR,,0.00,0.0,WeatherDisplay:10.37,2013-03-29 22:55:00,